Tracking 20066 objects as of 7-Dec-2019
HD Live streaming from Space Station
objects crossing your sky now

SL-8 R/B

Track SL-8 R/B now!
10-day predictions
SL-8 R/B is classified as:


NORAD ID: 19257
Int'l Code: 1988-053B
Perigee: 759.8 km
Apogee: 788.4 km
Inclination: 74.0 °
Period: 100.2 minutes
Semi major axis: 7145 km
RCS: 4.3504 m2 (large)
Launch date: June 21, 1988
Source: Commonwealth of Independent States (former USSR) (CIS)
Launch site: PLESETSK MISSILE AND SPACE COMPLEX (PKMTR)

Note: This is a ROCKET BODY
aabbcc
Your satellite tracking list
Your tracking list is empty




NASA's NSSDC Master Catalog

Two Line Element Set (TLE):
1 19257U 88053B   19340.77745725 +.00000082 +00000-0 +36091-4 0  9992
2 19257 074.0491 357.0953 0019984 020.4291 153.1558 14.37449676648177
Source of the keplerian elements: AFSPC